Le nostre stazioni meteo in Italia

Pubblicità
Il mio iltempo24.it
Catanzaro, Italia (16365): Temperatura & dewpoint: 09.09.2019 21:00:00 - 15.09.2019 21:00:00 (CEST)Catanzaro, Italia (16365): velocità del vento: 09.09.2019 21:00:00 - 15.09.2019 21:00:00 (CEST)Catanzaro, Italia (16365): direzione del vento: 09.09.2019 21:00:00 - 15.09.2019 21:00:00 (CEST)Catanzaro, Italia (16365): reduced air pressure: 09.09.2019 21:00:00 - 15.09.2019 21:00:00 (CEST)
Data & Tempo tt [°C] td [°C] ff [km/h] ff [kn] dd ppp [hPa]
15.09.2019 21:00:00 - - - - - -
15.09.2019 20:00:00 21,8 13,9 8 4 O 1021,4
15.09.2019 19:00:00 23,0 13,7 4 2 OSO 1021,3
15.09.2019 18:00:00 23,4 14,9 8 4 SSO 1021,4
15.09.2019 17:00:00 23,4 15,4 11 6 S 1021,4
15.09.2019 16:00:00 24,5 14,2 16 9 S 1021,4
15.09.2019 15:00:00 27,0 12,2 18 10 O 1021,4
15.09.2019 14:00:00 26,2 11,5 15 8 OSO 1022,0
15.09.2019 13:00:00 25,1 12,3 11 6 ONO 1022,4
15.09.2019 12:00:00 24,0 12,9 9 5 O 1023,0
15.09.2019 11:00:00 22,8 12,7 9 5 ONO 1023,6
15.09.2019 10:00:00 21,8 12,8 11 6 ONO 1023,4
15.09.2019 09:00:00 20,4 12,6 18 10 ONO 1023,4
15.09.2019 08:00:00 20,0 6,3 13 7 ONO 1022,8
15.09.2019 07:00:00 19,6 8,5 11 6 NO 1022,7
15.09.2019 06:00:00 20,0 9,8 4 2 ONO 1022,7
15.09.2019 05:00:00 19,9 10,3 8 4 NO 1022,6
15.09.2019 04:00:00 19,9 10,3 5 3 NO 1022,9
15.09.2019 03:00:00 20,0 10,1 4 2 NNO 1023,2
15.09.2019 02:00:00 20,5 10,5 2 1 NNO 1023,3
15.09.2019 01:00:00 20,6 10,6 13 7 NO 1023,1
15.09.2019 00:00:00 20,7 11,0 4 2 NNO 1023,3
14.09.2019 23:00:00 20,7 13,6 15 8 NO 1023,6
14.09.2019 22:00:00 21,2 13,3 18 10 ONO 1023,7
14.09.2019 21:00:00 21,6 12,4 15 8 NO 1023,3
14.09.2019 20:00:00 21,7 12,8 13 7 ONO 1022,7
14.09.2019 19:00:00 22,7 11,4 22 12 ONO 1022,1
14.09.2019 18:00:00 23,9 10,5 9 5 ONO 1022,0
14.09.2019 17:00:00 24,5 10,4 9 5 ONO 1022,1
14.09.2019 16:00:00 25,6 10,2 18 10 ONO 1022,1
14.09.2019 15:00:00 26,3 10,0 15 8 OSO 1022,3
14.09.2019 14:00:00 26,0 9,3 21 11 ONO 1022,8
14.09.2019 13:00:00 25,8 10,0 5 3 O 1023,3
14.09.2019 12:00:00 25,2 10,6 11 6 O 1023,5
14.09.2019 11:00:00 24,2 10,4 8 4 O 1023,7
14.09.2019 10:00:00 22,8 9,5 15 8 O 1024,1
14.09.2019 09:00:00 22,5 7,4 5 3 ONO 1023,9
14.09.2019 08:00:00 20,8 5,5 4 2 ONO 1023,8
14.09.2019 07:00:00 20,7 5,4 5 3 ONO 1023,6
14.09.2019 06:00:00 20,5 6,0 5 3 ONO 1023,3
14.09.2019 05:00:00 20,0 5,2 5 3 ONO 1023,5
14.09.2019 04:00:00 21,4 4,8 9 5 NNO 1023,5
14.09.2019 03:00:00 21,3 5,2 18 10 NNO 1023,9
14.09.2019 02:00:00 21,6 5,8 15 8 NO 1024,1
14.09.2019 01:00:00 20,6 7,9 5 3 NNO 1025,0
14.09.2019 00:00:00 20,7 8,6 5 3 N 1025,2
13.09.2019 23:00:00 21,6 8,4 0 0 N 1024,9
13.09.2019 22:00:00 22,4 8,8 8 4 NNO 1024,6
13.09.2019 21:00:00 21,9 13,7 4 2 NNO 1024,6
13.09.2019 20:00:00 22,2 15,2 13 7 ONO 1024,1
13.09.2019 19:00:00 23,3 14,2 5 3 ONO 1023,6
13.09.2019 18:00:00 24,2 14,8 15 8 ONO 1023,3
13.09.2019 17:00:00 25,3 15,5 16 9 ONO 1022,9
13.09.2019 16:00:00 25,9 14,9 15 8 O 1022,4
13.09.2019 15:00:00 26,1 12,8 11 6 ONO 1022,6
13.09.2019 14:00:00 27,2 12,4 5 3 N 1022,7
13.09.2019 13:00:00 26,1 11,4 11 6 O 1023,3
13.09.2019 12:00:00 25,1 12,0 16 9 ONO 1023,8
13.09.2019 11:00:00 24,3 12,6 15 8 O 1024,6
13.09.2019 10:00:00 22,8 13,2 16 9 O 1025,1
13.09.2019 09:00:00 21,3 12,1 8 4 O 1024,9
13.09.2019 08:00:00 21,1 9,3 2 1 NNE 1024,4
13.09.2019 07:00:00 19,9 8,5 13 7 ONO 1024,4
13.09.2019 06:00:00 20,1 12,3 22 12 NO 1024,2
13.09.2019 05:00:00 19,5 7,5 11 6 O 1024,0
13.09.2019 04:00:00 19,8 8,7 15 8 ONO 1023,9
13.09.2019 03:00:00 20,5 10,5 8 4 NO 1024,0
13.09.2019 02:00:00 20,2 12,6 15 8 NO 1024,4
13.09.2019 01:00:00 20,8 12,7 13 7 NO 1024,5
13.09.2019 00:00:00 20,7 15,2 15 8 NO 1024,7
12.09.2019 23:00:00 20,9 15,6 18 10 ONO 1024,8
12.09.2019 22:00:00 21,1 16,6 15 8 ONO 1024,8
12.09.2019 21:00:00 21,5 16,4 11 6 ONO 1024,4
12.09.2019 20:00:00 21,9 16,3 15 8 NO 1023,9
12.09.2019 19:00:00 22,5 15,5 13 7 ONO 1023,5
12.09.2019 18:00:00 23,6 14,8 18 10 O 1023,1
12.09.2019 17:00:00 24,8 14,2 16 9 O 1022,9
12.09.2019 16:00:00 25,3 13,1 9 5 O 1022,7
12.09.2019 15:00:00 25,3 13,4 11 6 O 1022,6
12.09.2019 14:00:00 25,1 15,4 9 5 O 1022,9
12.09.2019 13:00:00 24,6 14,9 16 9 O 1023,4
12.09.2019 12:00:00 24,4 15,3 15 8 O 1023,7
12.09.2019 11:00:00 23,8 13,9 13 7 O 1023,6
12.09.2019 10:00:00 22,6 13,8 9 5 ONO 1023,3
12.09.2019 09:00:00 21,4 12,8 5 3 ONO 1023,2
12.09.2019 08:00:00 20,9 11,5 9 5 NO 1022,8
12.09.2019 07:00:00 20,0 10,1 4 2 NNO 1022,5
12.09.2019 06:00:00 19,8 10,2 4 2 N 1021,8
12.09.2019 05:00:00 19,9 10,3 4 2 ONO 1021,8
12.09.2019 04:00:00 19,5 10,4 2 1 N 1021,4
12.09.2019 03:00:00 20,1 11,3 11 6 ONO 1021,6
12.09.2019 02:00:00 20,6 13,0 2 1 ONO 1021,1
12.09.2019 01:00:00 20,2 13,6 4 2 NNO 1021,2
12.09.2019 00:00:00 20,6 14,2 2 1 O 1021,1
11.09.2019 23:00:00 20,5 13,8 4 2 N 1021,1
11.09.2019 22:00:00 20,7 13,1 4 2 N 1020,7
11.09.2019 21:00:00 21,7 14,0 0 0 N 1019,8
11.09.2019 20:00:00 22,2 14,0 11 6 OSO 1018,9
11.09.2019 19:00:00 23,6 12,5 8 4 O 1018,3
11.09.2019 18:00:00 24,9 12,8 4 2 O 1017,7
11.09.2019 17:00:00 25,1 12,0 8 4 O 1017,1
11.09.2019 16:00:00 24,8 12,7 4 2 NO 1016,9
11.09.2019 15:00:00 23,6 12,5 16 9 NE 1017,1
11.09.2019 14:00:00 24,9 12,5 11 6 NE 1016,5
11.09.2019 13:00:00 25,0 11,5 5 3 SE 1016,4
11.09.2019 12:00:00 24,0 12,9 4 2 O 1016,3
11.09.2019 11:00:00 22,7 13,7 8 4 NNO 1016,5
11.09.2019 10:00:00 20,2 14,5 11 6 NO 1016,4
11.09.2019 09:00:00 19,8 15,2 5 3 SSO 1015,8
11.09.2019 08:00:00 18,6 15,0 0 0 N 1015,6
11.09.2019 07:00:00 18,2 15,6 4 2 OSO 1015,3
11.09.2019 06:00:00 18,2 15,9 4 2 N 1015,2
11.09.2019 05:00:00 17,6 15,7 2 1 S 1015,2
11.09.2019 04:00:00 18,4 15,0 8 4 SSO 1014,9
11.09.2019 03:00:00 20,7 12,8 9 5 ENE 1013,9
11.09.2019 02:00:00 20,6 12,3 5 3 E 1014,4
11.09.2019 01:00:00 20,1 14,6 0 0 N 1014,5
11.09.2019 00:00:00 20,0 14,7 2 1 E 1014,4
10.09.2019 23:00:00 20,1 13,7 11 6 E 1014,5
10.09.2019 22:00:00 20,4 12,8 0 0 N 1014,4
10.09.2019 21:00:00 20,4 13,0 0 0 N 1014,2
10.09.2019 20:00:00 20,5 12,4 4 2 ENE 1013,5
10.09.2019 19:00:00 21,4 12,5 5 3 SE 1013,1
10.09.2019 18:00:00 22,0 11,9 5 3 ESE 1013,1
10.09.2019 17:00:00 22,6 12,5 11 6 SE 1013,2
10.09.2019 16:00:00 23,3 11,3 5 3 SE 1013,2
10.09.2019 15:00:00 23,4 11,1 18 10 S 1013,6
10.09.2019 14:00:00 24,2 10,1 13 7 ESE 1013,8
10.09.2019 13:00:00 24,2 10,8 8 4 SE 1014,3
10.09.2019 12:00:00 23,4 10,4 8 4 SSE 1014,7
10.09.2019 11:00:00 22,1 10,2 8 4 O 1015,1
10.09.2019 10:00:00 20,5 9,7 5 3 O 1015,5
10.09.2019 09:00:00 20,1 8,7 13 7 ONO 1015,2
10.09.2019 08:00:00 18,5 6,6 9 5 ONO 1015,4
10.09.2019 07:00:00 18,4 6,8 15 8 ONO 1015,3
10.09.2019 06:00:00 18,5 7,8 15 8 NO 1015,1
10.09.2019 05:00:00 18,6 8,2 16 9 NO 1015,3
10.09.2019 04:00:00 18,9 7,0 26 14 NO 1015,3
10.09.2019 03:00:00 18,8 6,9 16 9 NO 1015,5
10.09.2019 02:00:00 18,6 7,0 8 4 NNO 1016,0
10.09.2019 01:00:00 18,7 6,5 4 2 NNO 1015,9
10.09.2019 00:00:00 18,8 8,1 13 7 O 1016,1
09.09.2019 23:00:00 19,4 10,6 5 3 N 1016,2
09.09.2019 22:00:00 19,6 13,2 15 8 NO 1016,2
09.09.2019 21:00:00 19,8 14,3 5 3 NO 1015,9

tt = Temperatura
td = dewpoint
ff = velocità del vento
dd = direzione del vento
ppp = reduced air pressure

Stazioni seguenti

WeatherPro
AMSI
MeteoEarth